Middlesboro, KY

2:45 AM CST on December 11, 2019 (GMT -0600)
Middlesboro

Weather History for K1A6 - November, 2019

Change the Weather History Date:

Tuesday, November 12, 2019

  Actual Average (KLOZ) Record (KLOZ)
Temperature  
Mean Temperature 30 °F -  
Max Temperature 40 °F 56 °F 76 °F (1978)
Min Temperature 20 °F 34 °F 17 °F (2019)
Degree Days  
Heating Degree Days 35    
Moisture  
Dew Point 22 °F    
Average Humidity 80    
Maximum Humidity 100    
Minimum Humidity 65    
Precipitation  
Precipitation 0.02 in - - ()
Sea Level Pressure  
Sea Level Pressure 30.28 in    
Wind  
Wind Speed 9 mph (North)    
Max Wind Speed 15 mph    
Max Gust Speed 23 mph    
Visibility 9 miles    
Events Rain , Snow    
Averages and records for this station are not official NWS values.
T = Trace of Precipitation, MM = Missing Value Source: NWS Daily Summary

Daily Weather History Graph

Daily Weather History Graph

Search for Another Location

Airport or City:

Astronomy

Nov. 12, 2019 Rise Set
Actual Time 6:09 AM CST 4:28 PM CST
Civil Twilight 5:42 AM CST 4:55 PM CST
Nautical Twilight 5:10 AM CST 5:26 PM CST
Astronomical Twilight 4:40 AM CST 5:57 PM CST
Moon 4:54 PM CST (11/12) 6:01 AM CST (11/12)
Length of Visible Light 11h 13m
Length of Day
10h 18m
Full, 100% of the Moon is Illuminated
Nov 12
Full
Nov 19
Last Quarter
Nov 26
New
Dec 4
First Quarter
Dec 11
Full

Hourly Weather History & Observations

Time (CST) Temp. Windchill Dew Point Humidity Pressure Visibility Wind Dir Wind Speed Gust Speed Precip Events Conditions
12:15 AM 40.1 °F 34.7 °F 38.5 °F 94% 30.09 in 10.0 mi NNW 8.1 mph - N/A Rain Rain
12:35 AM 38.7 °F 31.8 °F 36.3 °F 91% 30.10 in 10.0 mi North 10.4 mph - N/A   Drizzle
12:55 AM 36.7 °F 28.0 °F 34.2 °F 91% 30.10 in 10.0 mi North 13.8 mph 17.3 mph N/A   Light Drizzle
1:15 AM 35.4 °F 28.4 °F 33.1 °F 91% 30.11 in 7.0 mi NNW 9.2 mph 19.6 mph N/A Rain Rain
1:35 AM 34.3 °F 25.9 °F 31.8 °F 90% 30.12 in 7.0 mi North 11.5 mph 19.6 mph N/A   Overcast
1:55 AM 34.0 °F 25.0 °F 31.5 °F 90% 30.11 in 7.0 mi North 12.7 mph 19.6 mph N/A Snow Light Snow
2:15 AM 34.2 °F 26.8 °F 31.3 °F 89% 30.11 in 7.0 mi NNW 9.2 mph 16.1 mph N/A Snow Light Snow
2:35 AM 33.4 °F 25.4 °F 31.1 °F 91% 30.12 in 4.0 mi North 10.4 mph 23.0 mph N/A Snow Light Snow
2:55 AM 32.4 °F 24.6 °F 32.0 °F 99% 30.12 in 1.8 mi NNW 9.2 mph 16.1 mph 0.01 in Snow Light Snow
3:15 AM 32.0 °F 26.4 °F 32.0 °F 100% 30.13 in 1.5 mi NW 5.8 mph - N/A Snow Light Snow
3:35 AM 32.0 °F 25.6 °F 30.9 °F 96% 30.14 in 2.0 mi NNW 6.9 mph - 0.01 in Snow Light Snow
3:55 AM 32.0 °F 24.2 °F 29.3 °F 90% 30.14 in 5.0 mi North 9.2 mph 18.4 mph 0.01 in Snow Light Snow
4:15 AM 32.0 °F 22.5 °F 27.5 °F 83% 30.17 in 7.0 mi North 12.7 mph 23.0 mph N/A Snow Light Snow
4:35 AM 31.8 °F 23.9 °F 27.7 °F 85% 30.17 in 10.0 mi NNW 9.2 mph 19.6 mph N/A   Overcast
4:55 AM 31.6 °F 21.2 °F 27.7 °F 85% 30.18 in 10.0 mi NNW 15.0 mph 20.7 mph N/A   Overcast
5:15 AM 31.1 °F 21.9 °F 28.2 °F 89% 30.20 in 10.0 mi NNW 11.5 mph 19.6 mph N/A   Overcast
5:35 AM 30.9 °F 22.2 °F 26.4 °F 83% 30.21 in 10.0 mi NNW 10.4 mph 17.3 mph N/A   Overcast
5:55 AM 30.9 °F 22.8 °F 26.8 °F 85% 30.22 in 10.0 mi North 9.2 mph 19.6 mph N/A   Overcast
6:15 AM 30.2 °F 24.3 °F 27.3 °F 89% 30.23 in 10.0 mi North 5.8 mph 17.3 mph N/A   Overcast
6:35 AM 30.2 °F 22.6 °F 27.7 °F 90% 30.23 in 10.0 mi NNE 8.1 mph - N/A   Overcast
6:55 AM 29.8 °F 20.9 °F 28.4 °F 94% 30.24 in 3.0 mi NNE 10.4 mph - N/A Snow Light Snow
7:15 AM 29.3 °F 18.6 °F 26.6 °F 90% 30.26 in 4.0 mi NNW 13.8 mph 18.4 mph N/A Snow Light Snow
7:35 AM 29.1 °F 18.4 °F 23.5 °F 80% 30.26 in 10.0 mi NNW 13.8 mph 21.9 mph N/A   Overcast
7:55 AM 28.9 °F 18.6 °F 23.4 °F 80% 30.27 in 10.0 mi North 12.7 mph 20.7 mph N/A   Overcast
8:15 AM 28.4 °F 20.4 °F 23.9 °F 83% 30.27 in 10.0 mi North 8.1 mph - N/A   Overcast
8:35 AM 28.6 °F 21.5 °F 24.6 °F 85% 30.27 in 10.0 mi North 6.9 mph - N/A   Overcast
8:55 AM 28.8 °F 20.2 °F 24.8 °F 85% 30.28 in 7.0 mi NNW 9.2 mph - N/A Snow Light Snow
9:15 AM 28.4 °F 19.7 °F 23.7 °F 83% 30.28 in 10.0 mi NNW 9.2 mph - N/A   Overcast
9:35 AM 28.6 °F 19.3 °F 23.5 °F 81% 30.28 in 10.0 mi North 10.4 mph - N/A   Overcast
9:55 AM 28.4 °F 19.1 °F 22.6 °F 79% 30.29 in 10.0 mi North 10.4 mph 20.7 mph N/A   Overcast
10:15 AM 28.0 °F 17.5 °F 22.6 °F 80% 30.29 in 10.0 mi North 12.7 mph 17.3 mph N/A   Overcast
10:35 AM 28.0 °F 17.0 °F 21.9 °F 78% 30.29 in 10.0 mi North 13.8 mph - N/A   Overcast
10:55 AM 27.5 °F 18.0 °F 21.2 °F 77% 30.29 in 10.0 mi North 10.4 mph - N/A   Overcast
11:15 AM 27.9 °F 19.1 °F 21.7 °F 78% 30.29 in 10.0 mi NNW 9.2 mph - N/A   Overcast
11:35 AM 27.5 °F 20.2 °F 21.6 °F 78% 30.29 in 10.0 mi North 6.9 mph - N/A Snow Light Snow
11:55 AM 27.7 °F 18.2 °F 22.5 °F 81% 30.29 in 7.0 mi NW 10.4 mph - N/A Snow Light Snow
12:15 PM 27.3 °F 18.4 °F 21.4 °F 78% 30.29 in 7.0 mi North 9.2 mph - N/A Snow Light Snow
12:35 PM 27.1 °F 19.7 °F 19.8 °F 74% 30.29 in 10.0 mi North 6.9 mph - N/A   Overcast
12:55 PM 27.1 °F 18.2 °F 21.0 °F 78% 30.30 in 10.0 mi NW 9.2 mph - N/A Snow Light Snow
1:15 PM 26.6 °F 18.2 °F 19.4 °F 74% 30.30 in 10.0 mi North 8.1 mph - N/A Snow Light Snow
1:35 PM 26.4 °F 17.3 °F 19.4 °F 75% 30.30 in 10.0 mi North 9.2 mph - N/A Snow Light Snow
1:55 PM 25.7 °F 16.4 °F 18.7 °F 75% 30.31 in 10.0 mi NNW 9.2 mph - N/A   Overcast
2:15 PM 25.3 °F 18.5 °F 18.1 °F 74% 30.31 in 10.0 mi North 5.8 mph - N/A Snow Light Snow
2:35 PM 25.2 °F 15.7 °F 17.1 °F 71% 30.31 in 10.0 mi North 9.2 mph - N/A Snow Light Snow
2:55 PM 24.8 °F 14.6 °F 17.6 °F 74% 30.32 in 10.0 mi NNE 10.4 mph 16.1 mph N/A Snow Light Snow
3:15 PM 24.8 °F 16.1 °F 17.6 °F 74% 30.33 in 10.0 mi North 8.1 mph 17.3 mph N/A   Overcast
3:35 PM 24.3 °F 13.3 °F 16.0 °F 71% 30.35 in 10.0 mi NNW 11.5 mph 17.3 mph N/A Snow Light Snow
3:55 PM 23.9 °F 14.2 °F 15.6 °F 71% 30.35 in 10.0 mi NNE 9.2 mph 18.4 mph N/A   Overcast
4:15 PM 23.9 °F 13.5 °F 13.8 °F 65% 30.35 in 10.0 mi North 10.4 mph 17.3 mph N/A   Overcast
4:35 PM 23.9 °F 18.0 °F 14.2 °F 66% 30.35 in 10.0 mi North 4.6 mph - N/A   Overcast
4:55 PM 23.7 °F 14.7 °F 15.1 °F 70% 30.36 in 10.0 mi North 8.1 mph - N/A   Overcast
5:15 PM 23.7 °F 16.6 °F 14.9 °F 69% 30.36 in 10.0 mi NNW 5.8 mph - N/A   Overcast
5:35 PM 23.7 °F 15.6 °F 15.1 °F 70% 30.37 in 10.0 mi NNW 6.9 mph - N/A   Overcast
5:55 PM 23.5 °F 14.5 °F 14.4 °F 68% 30.37 in 10.0 mi NNW 8.1 mph - N/A   Overcast
7:15 PM 22.6 °F 13.4 °F 14.9 °F 72% 30.39 in 10.0 mi North 8.1 mph - N/A   Overcast
7:35 PM 22.8 °F 15.5 °F 14.7 °F 71% 30.39 in 10.0 mi NNW 5.8 mph - N/A Snow Light Snow
8:15 PM 21.9 °F 12.5 °F 13.6 °F 70% 30.40 in 10.0 mi NNW 8.1 mph - N/A   Overcast
8:35 PM 21.2 °F 13.6 °F 13.1 °F 71% 30.41 in 10.0 mi NNW 5.8 mph - N/A   Mostly Cloudy
8:55 PM 20.8 °F 14.4 °F 12.9 °F 71% 30.41 in 10.0 mi NNE 4.6 mph - N/A   Mostly Cloudy
9:15 PM 20.7 °F - 13.6 °F 74% 30.41 in 10.0 mi Calm Calm - N/A   Scattered Clouds
9:35 PM 21.0 °F - 14.0 °F 74% 30.39 in 10.0 mi Calm Calm - N/A   Mostly Cloudy
9:55 PM 21.2 °F 16.4 °F 13.8 °F 73% 30.39 in 10.0 mi ENE 3.5 mph - N/A   Overcast
10:15 PM 21.2 °F 12.6 °F 13.1 °F 71% 30.39 in 10.0 mi North 6.9 mph - N/A   Overcast
10:35 PM 21.4 °F 16.6 °F 13.3 °F 71% 30.39 in 10.0 mi NNE 3.5 mph - N/A   Overcast
10:55 PM 21.6 °F 15.3 °F 13.6 °F 72% 30.40 in 10.0 mi NE 4.6 mph - N/A   Overcast
11:15 PM 21.4 °F 16.6 °F 13.5 °F 72% 30.39 in 10.0 mi ENE 3.5 mph - N/A   Overcast
11:35 PM 21.2 °F 14.9 °F 12.4 °F 69% 30.38 in 10.0 mi NE 4.6 mph - N/A   Overcast
11:55 PM 20.8 °F - 12.0 °F 69% 30.38 in 10.0 mi Calm Calm - N/A   Overcast